Time,TemperatureF,DewpointF,PressureIn,WindDirection,WindDirectionDegrees,WindSpeedMPH,WindSpeedGustMPH,Humidity,HourlyPrecipIn,Conditions,Clouds,dailyrainin,SoftwareType,DateUTC
2013-02-08 00:00:00,56.1,47.9,30.01,North,0,13.0,22.0,74,0.00,,,0.00,WeatherCatV1.02B3,2013-02-08 06:00:00,
2013-02-08 00:05:00,55.9,47.7,30.01,North,355,12.0,17.0,74,0.00,,,0.00,WeatherCatV1.02B3,2013-02-08 06:05:00,
2013-02-08 00:10:00,55.7,47.2,30.01,NNE,17,9.0,17.0,73,0.00,,,0.00,WeatherCatV1.02B3,2013-02-08 06:10:00,
2013-02-08 00:15:00,55.4,46.5,30.01,North,5,10.0,13.0,72,0.00,,,0.00,WeatherCatV1.02B3,2013-02-08 06:15:00,
2013-02-08 00:20:00,55.1,46.2,30.01,North,5,10.0,20.0,72,0.00,,,0.00,WeatherCatV1.02B3,2013-02-08 06:20:00,
2013-02-08 00:25:00,54.9,46.4,30.01,NNE,33,6.0,10.0,73,0.00,,,0.00,WeatherCatV1.02B3,2013-02-08 06:25:00,
2013-02-08 00:30:00,54.6,46.1,30.02,NNE,23,10.0,12.0,73,0.00,,,0.00,WeatherCatV1.02B3,2013-02-08 06:30:00,
2013-02-08 00:35:00,54.2,45.7,30.02,NE,42,17.0,17.0,73,0.00,,,0.00,WeatherCatV1.02B3,2013-02-08 06:35:00,
2013-02-08 00:40:00,53.9,45.4,30.02,NNE,20,7.0,15.0,73,0.00,,,0.00,WeatherCatV1.02B3,2013-02-08 06:40:00,
2013-02-08 00:45:00,53.6,44.8,30.02,NNE,17,6.0,13.0,72,0.00,,,0.00,WeatherCatV1.02B3,2013-02-08 06:45:00,
2013-02-08 00:50:00,53.4,44.6,30.02,North,355,16.0,19.0,72,0.00,,,0.00,WeatherCatV1.02B3,2013-02-08 06:50:00,
2013-02-08 00:55:00,53.3,44.5,30.02,North,5,4.0,13.0,72,0.00,,,0.00,WeatherCatV1.02B3,2013-02-08 06:55:00,
2013-02-08 01:00:00,53.1,44.7,30.03,North,0,5.0,7.0,73,0.00,,,0.00,WeatherCatV1.02B3,2013-02-08 07:00:00,
2013-02-08 01:05:00,53.0,44.9,30.03,NNW,347,6.0,9.0,74,0.00,,,0.00,WeatherCatV1.02B3,2013-02-08 07:05:00,
2013-02-08 01:10:00,52.8,44.7,30.03,North,0,3.0,5.0,74,0.00,,,0.00,WeatherCatV1.02B3,2013-02-08 07:10:00,
2013-02-08 01:15:00,52.6,44.6,30.04,NNW,348,10.0,11.0,74,0.00,,,0.00,WeatherCatV1.02B3,2013-02-08 07:15:00,
2013-02-08 01:20:00,52.5,44.8,30.04,North,0,4.0,8.0,75,0.00,,,0.00,WeatherCatV1.02B3,2013-02-08 07:20:00,
2013-02-08 01:25:00,52.3,44.6,30.04,North,0,11.0,14.0,75,0.00,,,0.00,WeatherCatV1.02B3,2013-02-08 07:25:00,
2013-02-08 01:30:00,52.1,44.4,30.04,ENE,58,2.0,10.0,75,0.00,,,0.00,WeatherCatV1.02B3,2013-02-08 07:30:00,
2013-02-08 01:35:00,52.0,44.7,30.04,NNE,18,5.0,12.0,76,0.00,,,0.00,WeatherCatV1.02B3,2013-02-08 07:35:00,
2013-02-08 01:40:00,51.9,44.6,30.04,North,0,8.0,12.0,76,0.00,,,0.00,WeatherCatV1.02B3,2013-02-08 07:40:00,
2013-02-08 01:45:00,51.8,44.5,30.04,North,0,7.0,11.0,76,0.00,,,0.00,WeatherCatV1.02B3,2013-02-08 07:45:00,
2013-02-08 01:50:00,51.6,44.6,30.04,NNW,327,3.0,9.0,77,0.00,,,0.00,WeatherCatV1.02B3,2013-02-08 07:50:00,
2013-02-08 01:55:00,51.5,44.5,30.04,NNW,334,3.0,11.0,77,0.00,,,0.00,WeatherCatV1.02B3,2013-02-08 07:55:00,
2013-02-08 02:00:00,51.3,44.3,30.04,NNE,17,3.0,9.0,77,0.00,,,0.00,WeatherCatV1.02B3,2013-02-08 08:00:00,
2013-02-08 02:05:00,51.2,44.6,30.04,North,0,3.0,9.0,78,0.00,,,0.00,WeatherCatV1.02B3,2013-02-08 08:05:00,
2013-02-08 02:10:00,51.1,44.5,30.04,North,351,3.0,10.0,78,0.00,,,0.00,WeatherCatV1.02B3,2013-02-08 08:10:00,
2013-02-08 02:15:00,51.0,44.4,30.05,North,11,2.0,8.0,78,0.00,,,0.00,WeatherCatV1.02B3,2013-02-08 08:15:00,
2013-02-08 02:20:00,50.8,44.2,30.05,North,351,3.0,10.0,78,0.00,,,0.00,WeatherCatV1.02B3,2013-02-08 08:20:00,
2013-02-08 02:25:00,50.7,44.1,30.05,NNW,333,3.0,11.0,78,0.00,,,0.00,WeatherCatV1.02B3,2013-02-08 08:25:00,
2013-02-08 02:30:00,50.6,44.0,30.04,NNE,33,9.0,13.0,78,0.00,,,0.00,WeatherCatV1.02B3,2013-02-08 08:30:00,
2013-02-08 02:35:00,50.4,43.8,30.04,NNW,342,9.0,11.0,78,0.00,,,0.00,WeatherCatV1.02B3,2013-02-08 08:35:00,
2013-02-08 02:40:00,50.4,43.8,30.04,North,355,5.0,11.0,78,0.00,,,0.00,WeatherCatV1.02B3,2013-02-08 08:40:00,
2013-02-08 02:45:00,50.3,43.7,30.04,North,0,6.0,10.0,78,0.00,,,0.00,WeatherCatV1.02B3,2013-02-08 08:45:00,
2013-02-08 02:50:00,50.2,43.3,30.04,North,0,5.0,13.0,77,0.00,,,0.00,WeatherCatV1.02B3,2013-02-08 08:50:00,
2013-02-08 02:55:00,50.1,43.5,30.04,NNE,27,9.0,9.0,78,0.00,,,0.00,WeatherCatV1.02B3,2013-02-08 08:55:00,
2013-02-08 03:00:00,50.0,43.1,30.05,NNE,19,10.0,15.0,77,0.00,,,0.00,WeatherCatV1.02B3,2013-02-08 09:00:00,
2013-02-08 03:05:00,50.0,43.4,30.05,NNW,340,5.0,10.0,78,0.00,,,0.00,WeatherCatV1.02B3,2013-02-08 09:05:00,
2013-02-08 03:10:00,49.9,43.0,30.05,NNE,13,4.0,11.0,77,0.00,,,0.00,WeatherCatV1.02B3,2013-02-08 09:10:00,
2013-02-08 03:15:00,49.7,42.8,30.05,NNW,348,4.0,11.0,77,0.00,,,0.00,WeatherCatV1.02B3,2013-02-08 09:15:00,
2013-02-08 03:20:00,49.6,42.7,30.05,North,351,16.0,19.0,77,0.00,,,0.00,WeatherCatV1.02B3,2013-02-08 09:20:00,
2013-02-08 03:25:00,49.6,42.7,30.05,NNE,19,5.0,10.0,77,0.00,,,0.00,WeatherCatV1.02B3,2013-02-08 09:25:00,
2013-02-08 03:30:00,49.5,42.6,30.05,NNW,345,6.0,9.0,77,0.00,,,0.00,WeatherCatV1.02B3,2013-02-08 09:30:00,
2013-02-08 03:35:00,49.4,42.5,30.05,NNW,339,6.0,7.0,77,0.00,,,0.00,WeatherCatV1.02B3,2013-02-08 09:35:00,
2013-02-08 03:40:00,49.2,42.3,30.05,NNE,17,5.0,14.0,77,0.00,,,0.00,WeatherCatV1.02B3,2013-02-08 09:40:00,
2013-02-08 03:45:00,49.2,42.6,30.06,NNE,17,7.0,16.0,78,0.00,,,0.00,WeatherCatV1.02B3,2013-02-08 09:45:00,
2013-02-08 03:50:00,49.1,42.5,30.06,North,9,10.0,17.0,78,0.00,,,0.00,WeatherCatV1.02B3,2013-02-08 09:50:00,
2013-02-08 03:55:00,49.1,42.2,30.06,NNW,328,8.0,18.0,77,0.00,,,0.00,WeatherCatV1.02B3,2013-02-08 09:55:00,
2013-02-08 04:00:00,49.1,42.2,30.06,North,11,5.0,12.0,77,0.00,,,0.00,WeatherCatV1.02B3,2013-02-08 10:00:00,
2013-02-08 04:05:00,49.0,41.8,30.06,NNE,26,9.0,18.0,76,0.00,,,0.00,WeatherCatV1.02B3,2013-02-08 10:05:00,
2013-02-08 04:10:00,48.9,41.7,30.06,NNE,17,14.0,18.0,76,0.00,,,0.00,WeatherCatV1.02B3,2013-02-08 10:10:00,
2013-02-08 04:15:00,48.8,41.6,30.06,NE,42,5.0,14.0,76,0.00,,,0.00,WeatherCatV1.02B3,2013-02-08 10:15:00,
2013-02-08 04:20:00,48.7,41.5,30.06,NNE,17,4.0,16.0,76,0.00,,,0.00,WeatherCatV1.02B3,2013-02-08 10:20:00,
2013-02-08 04:25:00,48.6,41.7,30.06,NNE,27,4.0,10.0,77,0.00,,,0.00,WeatherCatV1.02B3,2013-02-08 10:25:00,
2013-02-08 04:30:00,48.5,41.3,30.07,NNE,14,10.0,16.0,76,0.00,,,0.00,WeatherCatV1.02B3,2013-02-08 10:30:00,
2013-02-08 04:35:00,48.4,41.2,30.07,North,355,13.0,13.0,76,0.00,,,0.00,WeatherCatV1.02B3,2013-02-08 10:35:00,
2013-02-08 04:40:00,48.3,41.1,30.07,NNE,12,7.0,15.0,76,0.00,,,0.00,WeatherCatV1.02B3,2013-02-08 10:40:00,
2013-02-08 04:45:00,48.2,42.3,30.07,North,355,5.0,11.0,80,0.00,,,0.00,WeatherCatV1.02B3,2013-02-08 10:45:00,
2013-02-08 04:50:00,48.1,41.2,30.07,NW,326,3.0,14.0,77,0.00,,,0.00,WeatherCatV1.02B3,2013-02-08 10:50:00,
2013-02-08 04:55:00,47.9,41.0,30.07,NNE,22,4.0,12.0,77,0.00,,,0.00,WeatherCatV1.02B3,2013-02-08 10:55:00,
2013-02-08 05:00:00,47.9,41.0,30.08,North,5,10.0,15.0,77,0.00,,,0.00,WeatherCatV1.02B3,2013-02-08 11:00:00,
2013-02-08 05:05:00,47.8,40.9,30.08,NNW,342,6.0,7.0,77,0.00,,,0.00,WeatherCatV1.02B3,2013-02-08 11:05:00,
2013-02-08 05:10:00,47.7,40.8,30.08,NE,36,2.0,11.0,77,0.00,,,0.00,WeatherCatV1.02B3,2013-02-08 11:10:00,
2013-02-08 05:15:00,47.6,40.8,30.09,North,5,6.0,11.0,77,0.00,,,0.00,WeatherCatV1.02B3,2013-02-08 11:15:00,
2013-02-08 05:20:00,47.5,40.7,30.09,NNW,346,10.0,11.0,77,0.00,,,0.00,WeatherCatV1.02B3,2013-02-08 11:20:00,
2013-02-08 05:25:00,47.4,40.6,30.09,NNE,26,4.0,11.0,77,0.00,,,0.00,WeatherCatV1.02B3,2013-02-08 11:25:00,
2013-02-08 05:30:00,47.2,40.7,30.10,North,0,7.0,13.0,78,0.00,,,0.00,WeatherCatV1.02B3,2013-02-08 11:30:00,
2013-02-08 05:35:00,47.2,40.4,30.10,North,355,5.0,13.0,77,0.00,,,0.00,WeatherCatV1.02B3,2013-02-08 11:35:00,
2013-02-08 05:40:00,47.1,40.6,30.10,NNW,348,6.0,10.0,78,0.00,,,0.00,WeatherCatV1.02B3,2013-02-08 11:40:00,
2013-02-08 05:45:00,47.0,40.2,30.10,North,349,6.0,16.0,77,0.00,,,0.00,WeatherCatV1.02B3,2013-02-08 11:45:00,
2013-02-08 05:50:00,46.9,40.4,30.10,North,355,10.0,10.0,78,0.00,,,0.00,WeatherCatV1.02B3,2013-02-08 11:50:00,
2013-02-08 05:55:00,46.8,40.0,30.10,NE,45,3.0,14.0,77,0.00,,,0.00,WeatherCatV1.02B3,2013-02-08 11:55:00,
2013-02-08 06:00:00,46.7,39.9,30.11,North,9,6.0,13.0,77,0.00,,,0.00,WeatherCatV1.02B3,2013-02-08 12:00:00,
2013-02-08 06:05:00,46.7,39.9,30.11,NNE,12,6.0,6.0,77,0.00,,,0.00,WeatherCatV1.02B3,2013-02-08 12:05:00,
2013-02-08 06:10:00,46.5,39.7,30.11,North,5,0.0,4.0,77,0.00,,,0.00,WeatherCatV1.02B3,2013-02-08 12:10:00,
2013-02-08 06:15:00,46.4,39.9,30.12,North,5,4.0,12.0,78,0.00,,,0.00,WeatherCatV1.02B3,2013-02-08 12:15:00,
2013-02-08 06:20:00,46.3,39.8,30.12,NNE,26,4.0,9.0,78,0.00,,,0.00,WeatherCatV1.02B3,2013-02-08 12:20:00,
2013-02-08 06:25:00,46.1,39.6,30.12,NE,36,6.0,12.0,78,0.00,,,0.00,WeatherCatV1.02B3,2013-02-08 12:25:00,
2013-02-08 06:30:00,46.0,39.5,30.12,North,355,11.0,14.0,78,0.00,,,0.00,WeatherCatV1.02B3,2013-02-08 12:30:00,
2013-02-08 06:35:00,46.0,39.5,30.12,North,355,11.0,13.0,78,0.00,,,0.00,WeatherCatV1.02B3,2013-02-08 12:35:00,
2013-02-08 06:40:00,45.9,39.4,30.12,North,0,14.0,14.0,78,0.00,,,0.00,WeatherCatV1.02B3,2013-02-08 12:40:00,
2013-02-08 06:45:00,45.7,39.2,30.13,NE,36,5.0,7.0,78,0.00,,,0.00,WeatherCatV1.02B3,2013-02-08 12:45:00,
2013-02-08 06:50:00,45.6,39.1,30.13,North,355,4.0,13.0,78,0.00,,,0.00,WeatherCatV1.02B3,2013-02-08 12:50:00,
2013-02-08 06:55:00,45.5,39.0,30.13,NNE,30,5.0,10.0,78,0.00,,,0.00,WeatherCatV1.02B3,2013-02-08 12:55:00,
2013-02-08 07:00:00,45.4,38.9,30.14,North,0,8.0,14.0,78,0.00,,,0.00,WeatherCatV1.02B3,2013-02-08 13:00:00,
2013-02-08 07:05:00,45.3,39.2,30.14,North,10,10.0,14.0,79,0.00,,,0.00,WeatherCatV1.02B3,2013-02-08 13:05:00,
2013-02-08 07:10:00,45.2,38.8,30.14,North,355,10.0,17.0,78,0.00,,,0.00,WeatherCatV1.02B3,2013-02-08 13:10:00,
2013-02-08 07:15:00,45.1,39.0,30.14,NNE,29,3.0,12.0,79,0.00,,,0.00,WeatherCatV1.02B3,2013-02-08 13:15:00,
2013-02-08 07:20:00,45.0,38.9,30.14,NNE,19,12.0,13.0,79,0.00,,,0.00,WeatherCatV1.02B3,2013-02-08 13:20:00,
2013-02-08 07:25:00,44.9,39.1,30.14,NNE,16,4.0,9.0,80,0.00,,,0.00,WeatherCatV1.02B3,2013-02-08 13:25:00,
2013-02-08 07:30:00,44.8,39.0,30.15,North,5,3.0,14.0,80,0.00,,,0.00,WeatherCatV1.02B3,2013-02-08 13:30:00,
2013-02-08 07:35:00,44.7,38.6,30.15,NNE,13,8.0,11.0,79,0.00,,,0.00,WeatherCatV1.02B3,2013-02-08 13:35:00,
2013-02-08 07:40:00,44.6,38.5,30.15,North,355,3.0,11.0,79,0.00,,,0.00,WeatherCatV1.02B3,2013-02-08 13:40:00,
2013-02-08 07:45:00,44.6,38.5,30.16,NNE,24,11.0,14.0,79,0.00,,,0.00,WeatherCatV1.02B3,2013-02-08 13:45:00,
2013-02-08 07:50:00,44.6,38.8,30.16,NE,36,7.0,9.0,80,0.00,,,0.00,WeatherCatV1.02B3,2013-02-08 13:50:00,
2013-02-08 07:55:00,44.6,38.8,30.16,NNE,23,10.0,10.0,80,0.00,,,0.00,WeatherCatV1.02B3,2013-02-08 13:55:00,
2013-02-08 08:00:00,44.6,38.8,30.17,NNE,13,5.0,12.0,80,0.00,,,0.00,WeatherCatV1.02B3,2013-02-08 14:00:00,
2013-02-08 08:05:00,44.6,38.5,30.17,North,355,4.0,16.0,79,0.00,,,0.00,WeatherCatV1.02B3,2013-02-08 14:05:00,
2013-02-08 08:10:00,44.6,38.5,30.17,NNE,28,8.0,16.0,79,0.00,,,0.00,WeatherCatV1.02B3,2013-02-08 14:10:00,
2013-02-08 08:15:00,44.7,38.6,30.16,NNE,24,4.0,9.0,79,0.00,,,0.00,WeatherCatV1.02B3,2013-02-08 14:15:00,
2013-02-08 08:20:00,44.8,39.0,30.16,NNW,342,7.0,9.0,80,0.00,,,0.00,WeatherCatV1.02B3,2013-02-08 14:20:00,
2013-02-08 08:25:00,44.9,38.5,30.16,NE,35,9.0,13.0,78,0.00,,,0.00,WeatherCatV1.02B3,2013-02-08 14:25:00,
2013-02-08 08:30:00,45.0,38.6,30.16,NNW,342,10.0,14.0,78,0.00,,,0.00,WeatherCatV1.02B3,2013-02-08 14:30:00,
2013-02-08 08:35:00,45.2,38.4,30.16,North,355,6.0,16.0,77,0.00,,,0.00,WeatherCatV1.02B3,2013-02-08 14:35:00,
2013-02-08 08:40:00,45.3,38.5,30.16,North,5,10.0,12.0,77,0.00,,,0.00,WeatherCatV1.02B3,2013-02-08 14:40:00,
2013-02-08 08:45:00,45.4,38.6,30.17,North,11,4.0,12.0,77,0.00,,,0.00,WeatherCatV1.02B3,2013-02-08 14:45:00,
2013-02-08 08:50:00,45.6,38.8,30.17,NNE,29,3.0,10.0,77,0.00,,,0.00,WeatherCatV1.02B3,2013-02-08 14:50:00,
2013-02-08 08:55:00,45.9,38.8,30.17,NNE,27,7.0,13.0,76,0.00,,,0.00,WeatherCatV1.02B3,2013-02-08 14:55:00,
2013-02-08 09:00:00,46.3,38.5,30.17,NNE,23,4.0,7.0,74,0.00,,,0.00,WeatherCatV1.02B3,2013-02-08 15:00:00,
2013-02-08 09:05:00,46.6,39.1,30.17,NE,38,3.0,11.0,75,0.00,,,0.00,WeatherCatV1.02B3,2013-02-08 15:05:00,
2013-02-08 09:10:00,47.0,39.1,30.17,ENE,69,2.0,6.0,74,0.00,,,0.00,WeatherCatV1.02B3,2013-02-08 15:10:00,
2013-02-08 09:15:00,47.5,39.3,30.17,NE,38,2.0,6.0,73,0.00,,,0.00,WeatherCatV1.02B3,2013-02-08 15:15:00,
2013-02-08 09:20:00,48.1,39.5,30.17,NNE,17,6.0,7.0,72,0.00,,,0.00,WeatherCatV1.02B3,2013-02-08 15:20:00,
2013-02-08 09:25:00,48.5,39.2,30.17,ENE,59,1.0,3.0,70,0.00,,,0.00,WeatherCatV1.02B3,2013-02-08 15:25:00,
2013-02-08 09:30:00,49.0,39.6,30.18,NNE,23,10.0,10.0,70,0.00,,,0.00,WeatherCatV1.02B3,2013-02-08 15:30:00,
2013-02-08 09:35:00,49.5,39.0,30.18,North,0,9.0,14.0,67,0.00,,,0.00,WeatherCatV1.02B3,2013-02-08 15:35:00,
2013-02-08 09:40:00,49.8,39.3,30.18,NNE,32,2.0,8.0,67,0.00,,,0.00,WeatherCatV1.02B3,2013-02-08 15:40:00,
2013-02-08 09:45:00,50.3,39.0,30.18,NE,42,0.0,2.0,65,0.00,,,0.00,WeatherCatV1.02B3,2013-02-08 15:45:00,
2013-02-08 09:50:00,50.9,39.6,30.18,North,9,3.0,10.0,65,0.00,,,0.00,WeatherCatV1.02B3,2013-02-08 15:50:00,
2013-02-08 09:55:00,51.5,39.3,30.18,NNE,25,3.0,11.0,63,0.00,,,0.00,WeatherCatV1.02B3,2013-02-08 15:55:00,
2013-02-08 10:00:00,51.8,38.8,30.19,NE,55,2.0,8.0,61,0.00,,,0.00,WeatherCatV1.02B3,2013-02-08 16:00:00,
2013-02-08 10:05:00,52.2,39.2,30.19,NNE,23,4.0,6.0,61,0.00,,,0.00,WeatherCatV1.02B3,2013-02-08 16:05:00,
2013-02-08 10:10:00,52.8,40.1,30.19,ENE,66,3.0,5.0,62,0.00,,,0.00,WeatherCatV1.02B3,2013-02-08 16:10:00,
2013-02-08 10:15:00,53.3,38.9,30.18,NE,44,0.0,6.0,58,0.00,,,0.00,WeatherCatV1.02B3,2013-02-08 16:15:00,
2013-02-08 10:20:00,53.8,40.7,30.18,North,10,4.0,4.0,61,0.00,,,0.00,WeatherCatV1.02B3,2013-02-08 16:20:00,
2013-02-08 10:25:00,54.3,39.8,30.18,North,5,7.0,9.0,58,0.00,,,0.00,WeatherCatV1.02B3,2013-02-08 16:25:00,
2013-02-08 10:30:00,54.7,40.2,30.18,NNE,29,6.0,6.0,58,0.00,,,0.00,WeatherCatV1.02B3,2013-02-08 16:30:00,
2013-02-08 10:35:00,55.2,40.7,30.18,NNE,22,5.0,6.0,58,0.00,,,0.00,WeatherCatV1.02B3,2013-02-08 16:35:00,
2013-02-08 10:40:00,55.7,41.2,30.18,North,355,4.0,7.0,58,0.00,,,0.00,WeatherCatV1.02B3,2013-02-08 16:40:00,
2013-02-08 10:45:00,56.3,39.4,30.18,NNE,25,0.0,6.0,53,0.00,,,0.00,WeatherCatV1.02B3,2013-02-08 16:45:00,
2013-02-08 10:50:00,56.9,40.9,30.18,NNE,13,5.0,12.0,55,0.00,,,0.00,WeatherCatV1.02B3,2013-02-08 16:50:00,
2013-02-08 10:55:00,57.8,39.3,30.18,NW,317,5.0,10.0,50,0.00,,,0.00,WeatherCatV1.02B3,2013-02-08 16:55:00,
2013-02-08 11:00:00,58.8,40.7,30.17,NE,46,9.0,9.0,51,0.00,,,0.00,WeatherCatV1.02B3,2013-02-08 17:00:00,
2013-02-08 11:05:00,59.4,38.6,30.17,NE,49,4.0,9.0,46,0.00,,,0.00,WeatherCatV1.02B3,2013-02-08 17:05:00,
2013-02-08 11:10:00,59.9,39.1,30.17,NE,49,9.0,11.0,46,0.00,,,0.00,WeatherCatV1.02B3,2013-02-08 17:10:00,
2013-02-08 11:15:00,60.2,37.6,30.16,NE,35,9.0,11.0,43,0.00,,,0.00,WeatherCatV1.02B3,2013-02-08 17:15:00,
2013-02-08 11:20:00,60.7,38.1,30.16,NE,50,7.0,12.0,43,0.00,,,0.00,WeatherCatV1.02B3,2013-02-08 17:20:00,
2013-02-08 11:25:00,61.1,37.2,30.16,ENE,63,9.0,12.0,41,0.00,,,0.00,WeatherCatV1.02B3,2013-02-08 17:25:00,
2013-02-08 11:30:00,61.4,38.1,30.16,North,5,7.0,14.0,42,0.00,,,0.00,WeatherCatV1.02B3,2013-02-08 17:30:00,
2013-02-08 11:35:00,61.6,36.4,30.16,NNE,20,6.0,12.0,39,0.00,,,0.00,WeatherCatV1.02B3,2013-02-08 17:35:00,
2013-02-08 11:40:00,62.0,35.4,30.16,NNE,17,5.0,15.0,37,0.00,,,0.00,WeatherCatV1.02B3,2013-02-08 17:40:00,
2013-02-08 11:45:00,62.1,36.8,30.16,NE,37,5.0,14.0,39,0.00,,,0.00,WeatherCatV1.02B3,2013-02-08 17:45:00,
2013-02-08 11:50:00,62.4,36.5,30.16,ENE,62,2.0,7.0,38,0.00,,,0.00,WeatherCatV1.02B3,2013-02-08 17:50:00,
2013-02-08 11:55:00,62.9,36.9,30.16,ENE,58,7.0,11.0,38,0.00,,,0.00,WeatherCatV1.02B3,2013-02-08 17:55:00,
2013-02-08 12:00:00,63.1,37.1,30.15,NE,51,2.0,6.0,38,0.00,,,0.00,WeatherCatV1.02B3,2013-02-08 18:00:00,
2013-02-08 12:05:00,63.6,35.4,30.15,NNE,19,4.0,9.0,35,0.00,,,0.00,WeatherCatV1.02B3,2013-02-08 18:05:00,
2013-02-08 12:10:00,64.1,35.9,30.15,NNW,340,6.0,13.0,35,0.00,,,0.00,WeatherCatV1.02B3,2013-02-08 18:10:00,
2013-02-08 12:15:00,64.7,36.4,30.16,North,10,4.0,8.0,35,0.00,,,0.00,WeatherCatV1.02B3,2013-02-08 18:15:00,
2013-02-08 12:20:00,65.0,35.9,30.16,NE,51,4.0,14.0,34,0.00,,,0.00,WeatherCatV1.02B3,2013-02-08 18:20:00,
2013-02-08 12:25:00,65.3,35.5,30.16,East,101,2.0,9.0,33,0.00,,,0.00,WeatherCatV1.02B3,2013-02-08 18:25:00,
2013-02-08 12:30:00,65.4,36.3,30.15,NNE,19,0.0,10.0,34,0.00,,,0.00,WeatherCatV1.02B3,2013-02-08 18:30:00,
2013-02-08 12:35:00,65.6,35.7,30.15,NE,52,5.0,9.0,33,0.00,,,0.00,WeatherCatV1.02B3,2013-02-08 18:35:00,
2013-02-08 12:40:00,65.8,36.6,30.15,NE,46,0.0,5.0,34,0.00,,,0.00,WeatherCatV1.02B3,2013-02-08 18:40:00,
2013-02-08 12:45:00,66.0,36.1,30.14,NE,38,4.0,7.0,33,0.00,,,0.00,WeatherCatV1.02B3,2013-02-08 18:45:00,
2013-02-08 12:50:00,66.1,36.2,30.14,NE,49,6.0,11.0,33,0.00,,,0.00,WeatherCatV1.02B3,2013-02-08 18:50:00,
2013-02-08 12:55:00,65.9,36.7,30.14,NE,34,6.0,9.0,34,0.00,,,0.00,WeatherCatV1.02B3,2013-02-08 18:55:00,
2013-02-08 13:00:00,66.0,36.1,30.13,NE,39,6.0,7.0,33,0.00,,,0.00,WeatherCatV1.02B3,2013-02-08 19:00:00,
2013-02-08 13:05:00,66.3,36.3,30.13,NE,38,2.0,9.0,33,0.00,,,0.00,WeatherCatV1.02B3,2013-02-08 19:05:00,
2013-02-08 13:10:00,66.8,36.0,30.13,NNE,26,9.0,13.0,32,0.00,,,0.00,WeatherCatV1.02B3,2013-02-08 19:10:00,
2013-02-08 13:15:00,66.9,36.1,30.12,NE,40,6.0,6.0,32,0.00,,,0.00,WeatherCatV1.02B3,2013-02-08 19:15:00,
2013-02-08 13:20:00,66.8,34.4,30.12,ESE,121,3.0,10.0,30,0.00,,,0.00,WeatherCatV1.02B3,2013-02-08 19:20:00,
2013-02-08 13:25:00,66.8,36.0,30.12,NNE,32,0.0,1.0,32,0.00,,,0.00,WeatherCatV1.02B3,2013-02-08 19:25:00,
2013-02-08 13:30:00,66.8,34.4,30.11,NE,50,2.0,9.0,30,0.00,,,0.00,WeatherCatV1.02B3,2013-02-08 19:30:00,
2013-02-08 13:35:00,66.9,35.3,30.11,East,82,7.0,11.0,31,0.00,,,0.00,WeatherCatV1.02B3,2013-02-08 19:35:00,
2013-02-08 13:40:00,67.0,34.5,30.11,ESE,107,1.0,1.0,30,0.00,,,0.00,WeatherCatV1.02B3,2013-02-08 19:40:00,
2013-02-08 13:45:00,67.2,34.7,30.11,NE,35,6.0,7.0,30,0.00,,,0.00,WeatherCatV1.02B3,2013-02-08 19:45:00,
2013-02-08 13:50:00,67.5,34.1,30.11,ENE,73,3.0,7.0,29,0.00,,,0.00,WeatherCatV1.02B3,2013-02-08 19:50:00,
2013-02-08 13:55:00,67.5,34.1,30.11,North,5,0.0,6.0,29,0.00,,,0.00,WeatherCatV1.02B3,2013-02-08 19:55:00,
2013-02-08 14:00:00,67.5,34.1,30.10,NE,40,4.0,7.0,29,0.00,,,0.00,WeatherCatV1.02B3,2013-02-08 20:00:00,
2013-02-08 14:05:00,67.6,34.2,30.10,ENE,57,0.0,7.0,29,0.00,,,0.00,WeatherCatV1.02B3,2013-02-08 20:05:00,
2013-02-08 14:10:00,67.9,35.3,30.10,North,11,0.0,6.0,30,0.00,,,0.00,WeatherCatV1.02B3,2013-02-08 20:10:00,
2013-02-08 14:15:00,68.0,34.6,30.10,ENE,68,0.0,6.0,29,0.00,,,0.00,WeatherCatV1.02B3,2013-02-08 20:15:00,
2013-02-08 14:20:00,68.0,34.6,30.10,SSE,165,0.0,1.0,29,0.00,,,0.00,WeatherCatV1.02B3,2013-02-08 20:20:00,
2013-02-08 14:25:00,68.1,34.6,30.10,NE,42,4.0,6.0,29,0.00,,,0.00,WeatherCatV1.02B3,2013-02-08 20:25:00,
2013-02-08 14:30:00,68.3,34.8,30.09,North,9,1.0,7.0,29,0.00,,,0.00,WeatherCatV1.02B3,2013-02-08 20:30:00,
2013-02-08 14:35:00,68.3,35.7,30.09,North,355,1.0,1.0,30,0.00,,,0.00,WeatherCatV1.02B3,2013-02-08 20:35:00,
2013-02-08 14:40:00,68.3,34.8,30.09,NE,36,5.0,9.0,29,0.00,,,0.00,WeatherCatV1.02B3,2013-02-08 20:40:00,
2013-02-08 14:45:00,68.3,34.8,30.09,ENE,69,3.0,6.0,29,0.00,,,0.00,WeatherCatV1.02B3,2013-02-08 20:45:00,
2013-02-08 14:50:00,68.3,33.9,30.09,NE,55,3.0,6.0,28,0.00,,,0.00,WeatherCatV1.02B3,2013-02-08 20:50:00,
2013-02-08 14:55:00,68.4,34.0,30.09,NE,41,4.0,6.0,28,0.00,,,0.00,WeatherCatV1.02B3,2013-02-08 20:55:00,
2013-02-08 15:00:00,68.4,34.0,30.09,North,355,0.0,5.0,28,0.00,,,0.00,WeatherCatV1.02B3,2013-02-08 21:00:00,
2013-02-08 15:05:00,68.3,32.1,30.09,NE,38,5.0,6.0,26,0.00,,,0.00,WeatherCatV1.02B3,2013-02-08 21:05:00,
2013-02-08 15:10:00,68.1,34.6,30.09,SE,146,5.0,5.0,29,0.00,,,0.00,WeatherCatV1.02B3,2013-02-08 21:10:00,
2013-02-08 15:15:00,68.0,30.9,30.09,NE,54,3.0,6.0,25,0.00,,,0.00,WeatherCatV1.02B3,2013-02-08 21:15:00,
2013-02-08 15:20:00,68.0,31.8,30.09,SE,141,2.0,10.0,26,0.00,,,0.00,WeatherCatV1.02B3,2013-02-08 21:20:00,
2013-02-08 15:25:00,67.9,30.8,30.09,SE,136,3.0,4.0,25,0.00,,,0.00,WeatherCatV1.02B3,2013-02-08 21:25:00,
2013-02-08 15:30:00,68.0,30.9,30.09,ESE,109,0.0,5.0,25,0.00,,,0.00,WeatherCatV1.02B3,2013-02-08 21:30:00,
2013-02-08 15:35:00,68.3,33.0,30.09,NE,51,3.0,3.0,27,0.00,,,0.00,WeatherCatV1.02B3,2013-02-08 21:35:00,
2013-02-08 15:40:00,68.4,33.1,30.09,South,169,0.0,0.0,27,0.00,,,0.00,WeatherCatV1.02B3,2013-02-08 21:40:00,
2013-02-08 15:45:00,68.3,33.0,30.09,SE,130,3.0,4.0,27,0.00,,,0.00,WeatherCatV1.02B3,2013-02-08 21:45:00,
2013-02-08 15:50:00,67.8,32.6,30.09,SSW,194,0.0,5.0,27,0.00,,,0.00,WeatherCatV1.02B3,2013-02-08 21:50:00,
2013-02-08 15:55:00,67.5,31.4,30.09,SE,128,0.0,1.0,26,0.00,,,0.00,WeatherCatV1.02B3,2013-02-08 21:55:00,
2013-02-08 16:00:00,67.6,31.5,30.09,SSE,149,0.0,5.0,26,0.00,,,0.00,WeatherCatV1.02B3,2013-02-08 22:00:00,
2013-02-08 16:05:00,67.7,33.4,30.09,SSE,162,3.0,4.0,28,0.00,,,0.00,WeatherCatV1.02B3,2013-02-08 22:05:00,
2013-02-08 16:10:00,67.7,34.3,30.09,South,169,0.0,7.0,29,0.00,,,0.00,WeatherCatV1.02B3,2013-02-08 22:10:00,
2013-02-08 16:15:00,67.3,35.6,30.09,SSE,151,0.0,2.0,31,0.00,,,0.00,WeatherCatV1.02B3,2013-02-08 22:15:00,
2013-02-08 16:20:00,66.9,34.5,30.09,NE,38,0.0,1.0,30,0.00,,,0.00,WeatherCatV1.02B3,2013-02-08 22:20:00,
2013-02-08 16:25:00,66.7,35.1,30.09,SSE,161,0.0,1.0,31,0.00,,,0.00,WeatherCatV1.02B3,2013-02-08 22:25:00,
2013-02-08 16:30:00,66.3,33.9,30.09,NE,42,3.0,6.0,30,0.00,,,0.00,WeatherCatV1.02B3,2013-02-08 22:30:00,
2013-02-08 16:35:00,66.0,32.8,30.09,East,81,0.0,4.0,29,0.00,,,0.00,WeatherCatV1.02B3,2013-02-08 22:35:00,
2013-02-08 16:40:00,65.8,32.7,30.09,East,86,2.0,4.0,29,0.00,,,0.00,WeatherCatV1.02B3,2013-02-08 22:40:00,
2013-02-08 16:45:00,65.5,33.2,30.09,NE,46,0.0,4.0,30,0.00,,,0.00,WeatherCatV1.02B3,2013-02-08 22:45:00,
2013-02-08 16:50:00,65.2,33.0,30.09,SE,143,0.0,0.0,30,0.00,,,0.00,WeatherCatV1.02B3,2013-02-08 22:50:00,
2013-02-08 16:55:00,64.8,32.6,30.09,South,190,0.0,2.0,30,0.00,,,0.00,WeatherCatV1.02B3,2013-02-08 22:55:00,
2013-02-08 17:00:00,64.4,33.1,30.09,SSE,150,0.0,4.0,31,0.00,,,0.00,WeatherCatV1.02B3,2013-02-08 23:00:00,
2013-02-08 17:05:00,63.9,31.9,30.09,SSE,151,0.0,4.0,30,0.00,,,0.00,WeatherCatV1.02B3,2013-02-08 23:05:00,
2013-02-08 17:10:00,63.6,30.8,30.09,East,92,0.0,1.0,29,0.00,,,0.00,WeatherCatV1.02B3,2013-02-08 23:10:00,
2013-02-08 17:15:00,63.3,32.2,30.09,SSE,152,1.0,2.0,31,0.00,,,0.00,WeatherCatV1.02B3,2013-02-08 23:15:00,
2013-02-08 17:20:00,62.9,31.8,30.09,ESE,123,4.0,6.0,31,0.00,,,0.00,WeatherCatV1.02B3,2013-02-08 23:20:00,
2013-02-08 17:25:00,62.5,31.5,30.09,ENE,69,0.0,2.0,31,0.00,,,0.00,WeatherCatV1.02B3,2013-02-08 23:25:00,
2013-02-08 17:30:00,62.2,33.5,30.08,SE,136,0.0,0.0,34,0.00,,,0.00,WeatherCatV1.02B3,2013-02-08 23:30:00,
2013-02-08 17:35:00,61.9,33.9,30.08,SE,136,0.0,1.0,35,0.00,,,0.00,WeatherCatV1.02B3,2013-02-08 23:35:00,
2013-02-08 17:40:00,61.5,32.9,30.08,ESE,120,0.0,3.0,34,0.00,,,0.00,WeatherCatV1.02B3,2013-02-08 23:40:00,
2013-02-08 17:45:00,61.3,34.8,30.09,ESE,120,0.0,1.0,37,0.00,,,0.00,WeatherCatV1.02B3,2013-02-08 23:45:00,
2013-02-08 17:50:00,60.9,35.1,30.09,ESE,120,0.0,0.0,38,0.00,,,0.00,WeatherCatV1.02B3,2013-02-08 23:50:00,
2013-02-08 17:55:00,60.7,35.6,30.09,ESE,120,0.0,0.0,39,0.00,,,0.00,WeatherCatV1.02B3,2013-02-08 23:55:00,
2013-02-08 18:00:00,60.4,36.6,30.09,ESE,120,0.0,0.0,41,0.00,,,0.00,WeatherCatV1.02B3,2013-02-09 00:00:00,
2013-02-08 18:05:00,60.1,36.9,30.09,ESE,120,0.0,0.0,42,0.00,,,0.00,WeatherCatV1.02B3,2013-02-09 00:05:00,
2013-02-08 18:10:00,59.7,36.6,30.09,ESE,120,0.0,0.0,42,0.00,,,0.00,WeatherCatV1.02B3,2013-02-09 00:10:00,
2013-02-08 18:15:00,59.3,36.2,30.08,ESE,120,0.0,0.0,42,0.00,,,0.00,WeatherCatV1.02B3,2013-02-09 00:15:00,
2013-02-08 18:21:00,58.7,36.3,30.08,ESE,120,0.0,0.0,43,0.00,,,0.00,WeatherCatV1.02B3,2013-02-09 00:21:00,
2013-02-08 18:26:00,58.3,36.5,30.08,ESE,120,0.0,0.0,44,0.00,,,0.00,WeatherCatV1.02B3,2013-02-09 00:26:00,
2013-02-08 18:31:00,57.9,36.7,30.08,ESE,120,0.0,0.0,45,0.00,,,0.00,WeatherCatV1.02B3,2013-02-09 00:31:00,
2013-02-08 18:36:00,57.4,36.2,30.08,ESE,120,0.0,0.0,45,0.00,,,0.00,WeatherCatV1.02B3,2013-02-09 00:36:00,
2013-02-08 18:41:00,57.0,35.9,30.08,ESE,120,1.0,2.0,45,0.00,,,0.00,WeatherCatV1.02B3,2013-02-09 00:41:00,
2013-02-08 18:46:00,56.5,36.0,30.08,ESE,120,0.0,0.0,46,0.00,,,0.00,WeatherCatV1.02B3,2013-02-09 00:46:00,
2013-02-08 18:51:00,56.1,36.1,30.08,ESE,120,0.0,0.0,47,0.00,,,0.00,WeatherCatV1.02B3,2013-02-09 00:51:00,
2013-02-08 18:56:00,55.7,36.3,30.08,ESE,120,0.0,0.0,48,0.00,,,0.00,WeatherCatV1.02B3,2013-02-09 00:56:00,
2013-02-08 19:01:00,55.4,36.6,30.08,ESE,120,0.0,0.0,49,0.00,,,0.00,WeatherCatV1.02B3,2013-02-09 01:01:00,
2013-02-08 19:06:00,55.1,36.8,30.08,ESE,120,0.0,0.0,50,0.00,,,0.00,WeatherCatV1.02B3,2013-02-09 01:06:00,
2013-02-08 19:11:00,54.7,36.4,30.08,ESE,120,0.0,0.0,50,0.00,,,0.00,WeatherCatV1.02B3,2013-02-09 01:11:00,
2013-02-08 19:16:00,54.3,36.6,30.07,ESE,120,0.0,0.0,51,0.00,,,0.00,WeatherCatV1.02B3,2013-02-09 01:16:00,
2013-02-08 19:21:00,54.0,36.8,30.07,East,92,0.0,0.0,52,0.00,,,0.00,WeatherCatV1.02B3,2013-02-09 01:21:00,
2013-02-08 19:26:00,53.7,37.0,30.07,East,92,0.0,0.0,53,0.00,,,0.00,WeatherCatV1.02B3,2013-02-09 01:26:00,
2013-02-08 19:31:00,53.4,36.7,30.08,East,92,0.0,0.0,53,0.00,,,0.00,WeatherCatV1.02B3,2013-02-09 01:31:00,
2013-02-08 19:36:00,53.2,37.0,30.08,East,92,0.0,0.0,54,0.00,,,0.00,WeatherCatV1.02B3,2013-02-09 01:36:00,
2013-02-08 19:41:00,53.0,36.8,30.08,East,92,0.0,1.0,54,0.00,,,0.00,WeatherCatV1.02B3,2013-02-09 01:41:00,
2013-02-08 19:46:00,52.8,36.6,30.08,East,92,0.0,1.0,54,0.00,,,0.00,WeatherCatV1.02B3,2013-02-09 01:46:00,
2013-02-08 19:51:00,52.6,36.9,30.08,East,92,0.0,1.0,55,0.00,,,0.00,WeatherCatV1.02B3,2013-02-09 01:51:00,
2013-02-08 19:56:00,52.4,36.7,30.08,East,92,0.0,0.0,55,0.00,,,0.00,WeatherCatV1.02B3,2013-02-09 01:56:00,
2013-02-08 20:01:00,52.2,36.5,30.08,East,92,0.0,0.0,55,0.00,,,0.00,WeatherCatV1.02B3,2013-02-09 02:01:00,
2013-02-08 20:06:00,52.1,36.4,30.08,East,92,0.0,0.0,55,0.00,,,0.00,WeatherCatV1.02B3,2013-02-09 02:06:00,
2013-02-08 20:11:00,51.9,36.7,30.08,East,92,0.0,0.0,56,0.00,,,0.00,WeatherCatV1.02B3,2013-02-09 02:11:00,
2013-02-08 20:16:00,51.8,36.6,30.09,East,92,0.0,0.0,56,0.00,,,0.00,WeatherCatV1.02B3,2013-02-09 02:16:00,
2013-02-08 20:21:00,51.6,36.9,30.09,East,92,0.0,0.0,57,0.00,,,0.00,WeatherCatV1.02B3,2013-02-09 02:21:00,
2013-02-08 20:26:00,51.4,37.1,30.09,East,92,0.0,1.0,58,0.00,,,0.00,WeatherCatV1.02B3,2013-02-09 02:26:00,
2013-02-08 20:31:00,51.1,37.3,30.09,East,92,0.0,0.0,59,0.00,,,0.00,WeatherCatV1.02B3,2013-02-09 02:31:00,
2013-02-08 20:36:00,50.9,37.5,30.09,East,92,0.0,0.0,60,0.00,,,0.00,WeatherCatV1.02B3,2013-02-09 02:36:00,
2013-02-08 20:41:00,50.6,37.7,30.09,East,92,0.0,1.0,61,0.00,,,0.00,WeatherCatV1.02B3,2013-02-09 02:41:00,
2013-02-08 20:46:00,50.3,37.4,30.09,East,92,0.0,1.0,61,0.00,,,0.00,WeatherCatV1.02B3,2013-02-09 02:46:00,
2013-02-08 20:51:00,50.1,37.2,30.09,East,92,0.0,0.0,61,0.00,,,0.00,WeatherCatV1.02B3,2013-02-09 02:51:00,
2013-02-08 20:56:00,49.8,37.3,30.09,East,90,0.0,1.0,62,0.00,,,0.00,WeatherCatV1.02B3,2013-02-09 02:56:00,
2013-02-08 21:01:00,49.6,37.1,30.08,East,89,0.0,0.0,62,0.00,,,0.00,WeatherCatV1.02B3,2013-02-09 03:01:00,
2013-02-08 21:06:00,49.4,36.5,30.08,East,92,0.0,1.0,61,0.00,,,0.00,WeatherCatV1.02B3,2013-02-09 03:06:00,
2013-02-08 21:11:00,49.2,36.7,30.08,East,92,0.0,0.0,62,0.00,,,0.00,WeatherCatV1.02B3,2013-02-09 03:11:00,
2013-02-08 21:16:00,49.1,36.6,30.08,East,88,0.0,1.0,62,0.00,,,0.00,WeatherCatV1.02B3,2013-02-09 03:16:00,
2013-02-08 21:21:00,48.9,36.5,30.08,ENE,76,0.0,3.0,62,0.00,,,0.00,WeatherCatV1.02B3,2013-02-09 03:21:00,
2013-02-08 21:26:00,48.8,36.4,30.08,ESE,119,0.0,1.0,62,0.00,,,0.00,WeatherCatV1.02B3,2013-02-09 03:26:00,
2013-02-08 21:31:00,48.6,36.6,30.08,ESE,119,0.0,0.0,63,0.00,,,0.00,WeatherCatV1.02B3,2013-02-09 03:31:00,
2013-02-08 21:36:00,48.6,36.6,30.08,ESE,119,0.0,0.0,63,0.00,,,0.00,WeatherCatV1.02B3,2013-02-09 03:36:00,
2013-02-08 21:41:00,48.4,36.4,30.08,ESE,111,0.0,1.0,63,0.00,,,0.00,WeatherCatV1.02B3,2013-02-09 03:41:00,
2013-02-08 21:46:00,48.4,36.4,30.08,ESE,116,0.0,3.0,63,0.00,,,0.00,WeatherCatV1.02B3,2013-02-09 03:46:00,
2013-02-08 21:51:00,48.4,36.4,30.08,ESE,102,0.0,0.0,63,0.00,,,0.00,WeatherCatV1.02B3,2013-02-09 03:51:00,
2013-02-08 21:56:00,48.4,36.4,30.08,ESE,110,0.0,1.0,63,0.00,,,0.00,WeatherCatV1.02B3,2013-02-09 03:56:00,
2013-02-08 22:01:00,48.4,36.4,30.08,East,101,0.0,0.0,63,0.00,,,0.00,WeatherCatV1.02B3,2013-02-09 04:01:00,
2013-02-08 22:06:00,48.4,36.4,30.08,ESE,115,0.0,1.0,63,0.00,,,0.00,WeatherCatV1.02B3,2013-02-09 04:06:00,
2013-02-08 22:11:00,48.6,36.6,30.08,East,100,0.0,1.0,63,0.00,,,0.00,WeatherCatV1.02B3,2013-02-09 04:11:00,
2013-02-08 22:16:00,48.6,37.0,30.08,ESE,107,0.0,1.0,64,0.00,,,0.00,WeatherCatV1.02B3,2013-02-09 04:16:00,
2013-02-08 22:21:00,48.7,36.7,30.08,ESE,113,0.0,0.0,63,0.00,,,0.00,WeatherCatV1.02B3,2013-02-09 04:21:00,
2013-02-08 22:26:00,48.7,36.7,30.08,SE,125,0.0,0.0,63,0.00,,,0.00,WeatherCatV1.02B3,2013-02-09 04:26:00,
2013-02-08 22:31:00,48.7,37.1,30.08,SE,125,0.0,0.0,64,0.00,,,0.00,WeatherCatV1.02B3,2013-02-09 04:31:00,
2013-02-08 22:36:00,48.6,37.0,30.08,SE,125,0.0,1.0,64,0.00,,,0.00,WeatherCatV1.02B3,2013-02-09 04:36:00,
2013-02-08 22:41:00,48.5,37.3,30.08,SE,125,0.0,0.0,65,0.00,,,0.00,WeatherCatV1.02B3,2013-02-09 04:41:00,
2013-02-08 22:46:00,48.4,37.2,30.08,SE,125,0.0,0.0,65,0.00,,,0.00,WeatherCatV1.02B3,2013-02-09 04:46:00,
2013-02-08 22:51:00,48.2,37.0,30.08,ESE,110,0.0,2.0,65,0.00,,,0.00,WeatherCatV1.02B3,2013-02-09 04:51:00,
2013-02-08 22:56:00,48.1,37.3,30.08,SE,141,0.0,1.0,66,0.00,,,0.00,WeatherCatV1.02B3,2013-02-09 04:56:00,
2013-02-08 23:00:00,47.9,37.1,30.08,East,85,1.0,2.0,66,0.00,,,0.00,WeatherCatV1.02B3,2013-02-09 05:00:00,
2013-02-08 23:05:00,47.8,37.4,30.08,ENE,58,1.0,4.0,67,0.00,,,0.00,WeatherCatV1.02B3,2013-02-09 05:05:00,
2013-02-08 23:10:00,47.7,37.3,30.08,ESE,119,2.0,2.0,67,0.00,,,0.00,WeatherCatV1.02B3,2013-02-09 05:10:00,
2013-02-08 23:15:00,47.8,37.0,30.06,SE,134,0.0,5.0,66,0.00,,,0.00,WeatherCatV1.02B3,2013-02-09 05:15:00,
2013-02-08 23:20:00,48.0,37.2,30.06,East,94,0.0,3.0,66,0.00,,,0.00,WeatherCatV1.02B3,2013-02-09 05:20:00,
2013-02-08 23:25:00,48.1,37.7,30.06,SE,131,0.0,2.0,67,0.00,,,0.00,WeatherCatV1.02B3,2013-02-09 05:25:00,
2013-02-08 23:30:00,48.1,37.7,30.06,SE,132,0.0,1.0,67,0.00,,,0.00,WeatherCatV1.02B3,2013-02-09 05:30:00,
2013-02-08 23:35:00,48.2,37.8,30.06,SE,125,0.0,0.0,67,0.00,,,0.00,WeatherCatV1.02B3,2013-02-09 05:35:00,
2013-02-08 23:40:00,48.2,38.1,30.06,ESE,121,0.0,1.0,68,0.00,,,0.00,WeatherCatV1.02B3,2013-02-09 05:40:00,
2013-02-08 23:45:00,48.1,38.0,30.08,SE,126,0.0,0.0,68,0.00,,,0.00,WeatherCatV1.02B3,2013-02-09 05:45:00,
2013-02-08 23:50:00,48.1,38.4,30.08,SSW,192,0.0,0.0,69,0.00,,,0.00,WeatherCatV1.02B3,2013-02-09 05:50:00,
2013-02-08 23:55:00,47.9,38.2,30.08,SE,144,0.0,1.0,69,0.00,,,0.00,WeatherCatV1.02B3,2013-02-09 05:55:00,